Time,TemperatureF,DewpointF,PressureIn,WindDirection,WindDirectionDegrees,WindSpeedMPH,WindSpeedGustMPH,Humidity,HourlyPrecipIn,Conditions,Clouds,dailyrainin,SolarRadiationWatts/m^2,SoftwareType,DateUTC
2013-02-23 00:04:00,68.1,66.0,29.88,NNW,338,2.0,-999.0,93,0.07,,,2.36,0,Wunderground v.1.15,2013-02-22 13:04:00,
2013-02-23 00:09:00,68.1,66.0,29.88,NNW,338,2.0,-999.0,93,0.07,,,2.36,0,Wunderground v.1.15,2013-02-22 13:09:00,
2013-02-23 00:14:00,68.1,66.0,29.88,NNW,338,2.0,-999.0,93,0.07,,,2.36,0,Wunderground v.1.15,2013-02-22 13:14:00,
2013-02-23 00:19:00,68.1,66.0,29.88,NNW,338,2.0,-999.0,93,0.05,,,2.36,0,Wunderground v.1.15,2013-02-22 13:19:00,
2013-02-23 00:24:00,68.1,66.0,29.88,NNW,338,2.0,-999.0,93,0.05,,,2.36,0,Wunderground v.1.15,2013-02-22 13:24:00,
2013-02-23 00:29:00,68.1,66.0,29.88,NNW,338,2.0,-999.0,93,0.05,,,2.36,0,Wunderground v.1.15,2013-02-22 13:29:00,
2013-02-23 00:34:00,68.1,66.0,29.88,NNW,338,2.0,-999.0,93,0.05,,,2.36,0,Wunderground v.1.15,2013-02-22 13:34:00,
2013-02-23 00:39:00,68.1,66.0,29.88,NNW,338,2.0,-999.0,93,0.05,,,2.36,0,Wunderground v.1.15,2013-02-22 13:39:00,
2013-02-23 00:44:00,68.1,66.0,29.88,NNW,338,2.0,-999.0,93,0.05,,,2.36,0,Wunderground v.1.15,2013-02-22 13:44:00,
2013-02-23 00:49:00,67.6,65.5,29.86,NNW,338,3.0,-999.0,93,0.07,,,2.36,0,Wunderground v.1.15,2013-02-22 13:49:00,
2013-02-23 00:54:00,67.6,65.5,29.86,NNW,338,3.0,-999.0,93,0.07,,,2.36,0,Wunderground v.1.15,2013-02-22 13:54:00,
2013-02-23 00:59:00,67.6,65.5,29.86,NNW,338,3.0,-999.0,93,0.07,,,2.36,0,Wunderground v.1.15,2013-02-22 13:59:00,
2013-02-23 01:04:00,67.6,65.5,29.86,NNW,338,3.0,-999.0,93,0.04,,,2.36,0,Wunderground v.1.15,2013-02-22 14:04:00,
2013-02-23 01:09:00,67.6,65.5,29.86,NNW,338,3.0,-999.0,93,0.04,,,2.36,0,Wunderground v.1.15,2013-02-22 14:09:00,
2013-02-23 01:14:00,67.6,65.5,29.86,NNW,338,3.0,-999.0,93,0.04,,,2.36,0,Wunderground v.1.15,2013-02-22 14:14:00,
2013-02-23 01:19:00,67.1,65.3,29.85,NW,315,3.0,-999.0,94,0.09,,,2.36,0,Wunderground v.1.15,2013-02-22 14:19:00,
2013-02-23 01:24:00,67.1,65.3,29.85,NW,315,3.0,-999.0,94,0.09,,,2.36,0,Wunderground v.1.15,2013-02-22 14:24:00,
2013-02-23 01:29:00,67.1,65.3,29.85,NW,315,3.0,-999.0,94,0.09,,,2.36,0,Wunderground v.1.15,2013-02-22 14:29:00,
2013-02-23 01:34:00,67.1,65.3,29.85,NW,315,3.0,-999.0,94,0.09,,,2.36,0,Wunderground v.1.15,2013-02-22 14:34:00,
2013-02-23 01:39:00,67.1,65.3,29.85,NW,315,3.0,-999.0,94,0.09,,,2.36,0,Wunderground v.1.15,2013-02-22 14:39:00,
2013-02-23 01:44:00,67.1,65.3,29.85,NW,315,3.0,-999.0,94,0.09,,,2.36,0,Wunderground v.1.15,2013-02-22 14:44:00,
2013-02-23 01:49:00,67.3,65.5,29.84,NNW,338,3.0,-999.0,94,0.08,,,2.36,0,Wunderground v.1.15,2013-02-22 14:49:00,
2013-02-23 01:54:00,67.3,65.5,29.84,NNW,338,3.0,-999.0,94,0.08,,,2.36,0,Wunderground v.1.15,2013-02-22 14:54:00,
2013-02-23 01:59:00,67.3,65.5,29.84,NNW,338,3.0,-999.0,94,0.08,,,2.36,0,Wunderground v.1.15,2013-02-22 14:59:00,
2013-02-23 02:04:00,67.3,65.5,29.84,NNW,338,3.0,-999.0,94,0.08,,,2.36,0,Wunderground v.1.15,2013-02-22 15:04:00,
2013-02-23 02:09:00,67.3,65.5,29.84,NNW,338,3.0,-999.0,94,0.08,,,2.36,0,Wunderground v.1.15,2013-02-22 15:09:00,
2013-02-23 02:14:00,67.3,65.5,29.84,NNW,338,3.0,-999.0,94,0.08,,,2.36,0,Wunderground v.1.15,2013-02-22 15:14:00,
2013-02-23 02:19:00,67.6,65.5,29.83,NW,315,3.0,-999.0,93,0.03,,,2.36,0,Wunderground v.1.15,2013-02-22 15:19:00,
2013-02-23 02:24:00,67.6,65.5,29.83,NW,315,3.0,-999.0,93,0.03,,,2.36,0,Wunderground v.1.15,2013-02-22 15:24:00,
2013-02-23 02:29:00,67.6,65.5,29.83,NW,315,3.0,-999.0,93,0.03,,,2.36,0,Wunderground v.1.15,2013-02-22 15:29:00,
2013-02-23 02:34:00,67.6,65.5,29.83,NW,315,3.0,-999.0,93,0.03,,,2.36,0,Wunderground v.1.15,2013-02-22 15:34:00,
2013-02-23 02:39:00,67.6,65.5,29.83,NW,315,3.0,-999.0,93,0.03,,,2.36,0,Wunderground v.1.15,2013-02-22 15:39:00,
2013-02-23 02:44:00,67.6,65.5,29.83,NW,315,3.0,-999.0,93,0.03,,,2.36,0,Wunderground v.1.15,2013-02-22 15:44:00,
2013-02-23 02:49:00,67.9,65.8,29.82,NNW,338,3.0,-999.0,93,0.02,,,2.36,0,Wunderground v.1.15,2013-02-22 15:49:00,
2013-02-23 02:54:00,67.9,65.8,29.82,NNW,338,3.0,-999.0,93,0.02,,,2.36,0,Wunderground v.1.15,2013-02-22 15:54:00,
2013-02-23 02:59:00,67.9,65.8,29.82,NNW,338,3.0,-999.0,93,0.02,,,2.36,0,Wunderground v.1.15,2013-02-22 15:59:00,
2013-02-23 03:04:00,67.9,65.8,29.82,NNW,338,3.0,-999.0,93,0.02,,,2.36,0,Wunderground v.1.15,2013-02-22 16:04:00,
2013-02-23 03:09:00,67.9,65.8,29.82,NNW,338,3.0,-999.0,93,0.02,,,2.36,0,Wunderground v.1.15,2013-02-22 16:09:00,
2013-02-23 03:14:00,67.9,65.8,29.82,NNW,338,3.0,-999.0,93,0.02,,,2.36,0,Wunderground v.1.15,2013-02-22 16:14:00,
2013-02-23 03:19:00,67.9,66.1,29.81,NW,315,3.0,-999.0,94,0.06,,,2.36,0,Wunderground v.1.15,2013-02-22 16:19:00,
2013-02-23 03:24:00,67.9,66.1,29.81,NW,315,3.0,-999.0,94,0.06,,,2.36,0,Wunderground v.1.15,2013-02-22 16:24:00,
2013-02-23 03:29:00,67.9,66.1,29.81,NW,315,3.0,-999.0,94,0.06,,,2.36,0,Wunderground v.1.15,2013-02-22 16:29:00,
2013-02-23 03:34:00,67.9,66.1,29.81,NW,315,3.0,-999.0,94,0.06,,,2.36,0,Wunderground v.1.15,2013-02-22 16:34:00,
2013-02-23 03:39:00,67.9,66.1,29.81,NW,315,3.0,-999.0,94,0.06,,,2.36,0,Wunderground v.1.15,2013-02-22 16:39:00,
2013-02-23 03:44:00,67.9,66.1,29.81,NW,315,3.0,-999.0,94,0.06,,,2.36,0,Wunderground v.1.15,2013-02-22 16:44:00,
2013-02-23 03:49:00,67.7,65.9,29.80,NW,315,3.0,-999.0,94,0.08,,,2.36,0,Wunderground v.1.15,2013-02-22 16:49:00,
2013-02-23 03:54:00,67.7,65.9,29.80,NW,315,3.0,-999.0,94,0.08,,,2.36,0,Wunderground v.1.15,2013-02-22 16:54:00,
2013-02-23 03:59:00,67.7,65.9,29.80,NW,315,3.0,-999.0,94,0.08,,,2.36,0,Wunderground v.1.15,2013-02-22 16:59:00,
2013-02-23 04:04:00,67.7,65.9,29.80,NW,315,3.0,-999.0,94,0.08,,,2.36,0,Wunderground v.1.15,2013-02-22 17:04:00,
2013-02-23 04:09:00,67.7,65.9,29.80,NW,315,3.0,-999.0,94,0.08,,,2.36,0,Wunderground v.1.15,2013-02-22 17:09:00,
2013-02-23 04:14:00,67.7,65.9,29.80,NW,315,3.0,-999.0,94,0.08,,,2.36,0,Wunderground v.1.15,2013-02-22 17:14:00,
2013-02-23 04:19:00,67.6,66.1,29.80,NW,315,3.0,-999.0,95,0.09,,,2.36,0,Wunderground v.1.15,2013-02-22 17:19:00,
2013-02-23 04:24:00,67.6,66.1,29.80,NW,315,3.0,-999.0,95,0.09,,,2.36,0,Wunderground v.1.15,2013-02-22 17:24:00,
2013-02-23 04:29:00,67.6,66.1,29.80,NW,315,3.0,-999.0,95,0.09,,,2.36,0,Wunderground v.1.15,2013-02-22 17:29:00,
2013-02-23 04:34:00,67.6,66.1,29.80,NW,315,3.0,-999.0,95,0.09,,,2.36,0,Wunderground v.1.15,2013-02-22 17:34:00,
2013-02-23 04:39:00,67.6,66.1,29.80,NW,315,3.0,-999.0,95,0.09,,,2.36,0,Wunderground v.1.15,2013-02-22 17:39:00,
2013-02-23 04:44:00,67.6,66.1,29.80,NW,315,3.0,-999.0,95,0.09,,,2.36,0,Wunderground v.1.15,2013-02-22 17:44:00,
2013-02-23 04:49:00,67.7,66.2,29.80,NE,45,3.0,-999.0,95,0.09,,,2.36,0,Wunderground v.1.15,2013-02-22 17:49:00,
2013-02-23 04:54:00,67.7,66.2,29.80,NE,45,3.0,-999.0,95,0.09,,,2.36,0,Wunderground v.1.15,2013-02-22 17:54:00,
2013-02-23 04:59:00,67.7,66.2,29.80,NE,45,3.0,-999.0,95,0.09,,,2.36,0,Wunderground v.1.15,2013-02-22 17:59:00,
2013-02-23 05:04:00,67.7,66.2,29.80,NE,45,3.0,-999.0,95,0.09,,,2.36,0,Wunderground v.1.15,2013-02-22 18:04:00,
2013-02-23 05:09:00,67.7,66.2,29.80,NE,45,3.0,-999.0,95,0.09,,,2.36,0,Wunderground v.1.15,2013-02-22 18:09:00,
2013-02-23 05:14:00,67.7,66.2,29.80,NE,45,3.0,-999.0,95,0.09,,,2.36,0,Wunderground v.1.15,2013-02-22 18:14:00,
2013-02-23 05:19:00,68.2,67.0,29.79,NW,315,3.0,-999.0,96,0.06,,,2.36,0,Wunderground v.1.15,2013-02-22 18:19:00,
2013-02-23 05:24:00,68.2,67.0,29.79,NW,315,3.0,-999.0,96,0.06,,,2.36,0,Wunderground v.1.15,2013-02-22 18:24:00,
2013-02-23 05:29:00,68.2,67.0,29.79,NW,315,3.0,-999.0,96,0.06,,,2.36,0,Wunderground v.1.15,2013-02-22 18:29:00,
2013-02-23 05:34:00,68.2,67.0,29.79,NW,315,3.0,-999.0,96,0.06,,,2.36,0,Wunderground v.1.15,2013-02-22 18:34:00,
2013-02-23 05:39:00,68.2,67.0,29.79,NW,315,3.0,-999.0,96,0.06,,,2.36,0,Wunderground v.1.15,2013-02-22 18:39:00,
2013-02-23 05:44:00,68.2,67.0,29.79,NW,315,3.0,-999.0,96,0.06,,,2.36,0,Wunderground v.1.15,2013-02-22 18:44:00,
2013-02-23 05:49:00,68.5,67.0,29.78,NNW,338,3.0,-999.0,95,0.02,,,2.36,0,Wunderground v.1.15,2013-02-22 18:49:00,
2013-02-23 05:54:00,68.5,67.0,29.78,NNW,338,3.0,-999.0,95,0.02,,,2.36,0,Wunderground v.1.15,2013-02-22 18:54:00,
2013-02-23 05:59:00,68.5,67.0,29.78,NNW,338,3.0,-999.0,95,0.02,,,2.36,0,Wunderground v.1.15,2013-02-22 18:59:00,
2013-02-23 06:04:00,68.5,67.0,29.78,NNW,338,3.0,-999.0,95,0.02,,,2.36,0,Wunderground v.1.15,2013-02-22 19:04:00,
2013-02-23 06:09:00,68.5,67.0,29.78,NNW,338,3.0,-999.0,95,0.02,,,2.36,0,Wunderground v.1.15,2013-02-22 19:09:00,
2013-02-23 06:14:00,68.5,67.0,29.78,NNW,338,3.0,-999.0,95,0.02,,,2.36,0,Wunderground v.1.15,2013-02-22 19:14:00,
2013-02-23 06:19:00,68.6,67.1,29.78,NW,315,3.0,-999.0,95,0.00,,,2.36,0,Wunderground v.1.15,2013-02-22 19:19:00,
2013-02-23 06:24:00,68.6,67.1,29.78,NW,315,3.0,-999.0,95,0.00,,,2.36,0,Wunderground v.1.15,2013-02-22 19:24:00,
2013-02-23 06:29:00,68.6,67.1,29.78,NW,315,3.0,-999.0,95,0.00,,,2.36,0,Wunderground v.1.15,2013-02-22 19:29:00,
2013-02-23 06:34:00,68.6,67.1,29.78,NW,315,3.0,-999.0,95,0.00,,,2.36,0,Wunderground v.1.15,2013-02-22 19:34:00,
2013-02-23 06:39:00,68.6,67.1,29.78,NW,315,3.0,-999.0,95,0.00,,,2.36,0,Wunderground v.1.15,2013-02-22 19:39:00,
2013-02-23 06:44:00,68.6,67.1,29.78,NW,315,3.0,-999.0,95,0.00,,,2.36,0,Wunderground v.1.15,2013-02-22 19:44:00,
2013-02-23 06:49:00,69.1,67.0,29.79,NW,315,3.0,-999.0,93,0.00,,,2.36,1,Wunderground v.1.15,2013-02-22 19:49:00,
2013-02-23 06:54:00,69.1,67.0,29.79,NW,315,3.0,-999.0,93,0.00,,,2.36,1,Wunderground v.1.15,2013-02-22 19:54:00,
2013-02-23 06:59:00,69.1,67.0,29.79,NW,315,3.0,-999.0,93,0.00,,,2.36,1,Wunderground v.1.15,2013-02-22 19:59:00,
2013-02-23 07:04:00,69.1,67.0,29.79,NW,315,3.0,-999.0,93,0.00,,,2.36,1,Wunderground v.1.15,2013-02-22 20:04:00,
2013-02-23 07:09:00,69.1,67.0,29.79,NW,315,3.0,-999.0,93,0.00,,,2.36,1,Wunderground v.1.15,2013-02-22 20:09:00,
2013-02-23 07:14:00,69.1,67.0,29.79,NW,315,3.0,-999.0,93,0.00,,,2.36,1,Wunderground v.1.15,2013-02-22 20:14:00,
2013-02-23 07:19:00,69.7,67.3,29.79,NW,315,3.0,-999.0,92,0.00,,,2.36,9,Wunderground v.1.15,2013-02-22 20:19:00,
2013-02-23 07:24:00,69.7,67.3,29.79,NW,315,3.0,-999.0,92,0.00,,,2.36,9,Wunderground v.1.15,2013-02-22 20:24:00,
2013-02-23 07:29:00,69.7,67.3,29.79,NW,315,3.0,-999.0,92,0.00,,,2.36,9,Wunderground v.1.15,2013-02-22 20:29:00,
2013-02-23 07:34:00,69.7,67.3,29.79,NW,315,3.0,-999.0,92,0.00,,,2.36,9,Wunderground v.1.15,2013-02-22 20:34:00,
2013-02-23 07:39:00,69.7,67.3,29.79,NW,315,3.0,-999.0,92,0.00,,,2.36,9,Wunderground v.1.15,2013-02-22 20:39:00,
2013-02-23 07:44:00,69.7,67.3,29.79,NW,315,3.0,-999.0,92,0.00,,,2.36,9,Wunderground v.1.15,2013-02-22 20:44:00,
2013-02-23 07:49:00,70.0,67.3,29.80,NNE,23,4.0,-999.0,91,0.00,,,2.36,16,Wunderground v.1.15,2013-02-22 20:49:00,
2013-02-23 07:54:00,70.0,67.3,29.80,NNE,23,4.0,-999.0,91,0.00,,,2.36,16,Wunderground v.1.15,2013-02-22 20:54:00,
2013-02-23 07:59:00,70.0,67.3,29.80,NNE,23,4.0,-999.0,91,0.00,,,2.36,16,Wunderground v.1.15,2013-02-22 20:59:00,
2013-02-23 08:04:00,70.0,67.3,29.80,NNE,23,4.0,-999.0,91,0.00,,,2.36,16,Wunderground v.1.15,2013-02-22 21:04:00,
2013-02-23 08:09:00,70.0,67.3,29.80,NNE,23,4.0,-999.0,91,0.00,,,2.36,16,Wunderground v.1.15,2013-02-22 21:09:00,
2013-02-23 08:14:00,70.0,67.3,29.80,NNE,23,4.0,-999.0,91,0.00,,,2.36,16,Wunderground v.1.15,2013-02-22 21:14:00,
2013-02-23 08:19:00,70.3,67.9,29.80,North,0,3.0,-999.0,92,0.01,,,2.36,20,Wunderground v.1.15,2013-02-22 21:19:00,
2013-02-23 08:24:00,70.3,67.9,29.80,North,0,3.0,-999.0,92,0.01,,,2.36,20,Wunderground v.1.15,2013-02-22 21:24:00,
2013-02-23 08:29:00,70.3,67.9,29.80,North,0,3.0,-999.0,92,0.01,,,2.36,20,Wunderground v.1.15,2013-02-22 21:29:00,
2013-02-23 08:34:00,70.3,67.9,29.80,North,0,3.0,-999.0,92,0.01,,,2.36,20,Wunderground v.1.15,2013-02-22 21:34:00,
2013-02-23 08:39:00,70.3,67.9,29.80,North,0,3.0,-999.0,92,0.01,,,2.36,20,Wunderground v.1.15,2013-02-22 21:39:00,
2013-02-23 08:44:00,70.3,67.9,29.80,North,0,3.0,-999.0,92,0.01,,,2.36,20,Wunderground v.1.15,2013-02-22 21:44:00,
2013-02-23 08:49:00,70.4,68.6,29.80,NNW,338,3.0,-999.0,94,0.06,,,2.36,36,Wunderground v.1.15,2013-02-22 21:49:00,
2013-02-23 08:54:00,70.4,68.6,29.80,NNW,338,3.0,-999.0,94,0.06,,,2.36,36,Wunderground v.1.15,2013-02-22 21:54:00,
2013-02-23 08:59:00,70.4,68.6,29.80,NNW,338,3.0,-999.0,94,0.06,,,2.36,36,Wunderground v.1.15,2013-02-22 21:59:00,
2013-02-23 09:04:00,70.4,68.6,29.80,NNW,338,3.0,-999.0,94,0.06,,,2.36,36,Wunderground v.1.15,2013-02-22 22:04:00,
2013-02-23 09:09:00,70.4,68.6,29.80,NNW,338,3.0,-999.0,94,0.06,,,2.36,36,Wunderground v.1.15,2013-02-22 22:09:00,
2013-02-23 09:14:00,70.4,68.6,29.80,NNW,338,3.0,-999.0,94,0.06,,,2.36,36,Wunderground v.1.15,2013-02-22 22:14:00,
2013-02-23 09:19:00,70.3,68.8,29.80,NNE,23,3.0,-999.0,95,0.09,,,2.36,61,Wunderground v.1.15,2013-02-22 22:19:00,
2013-02-23 09:24:00,70.3,68.8,29.80,NNE,23,3.0,-999.0,95,0.09,,,2.36,61,Wunderground v.1.15,2013-02-22 22:24:00,
2013-02-23 09:29:00,70.3,68.8,29.80,NNE,23,3.0,-999.0,95,0.09,,,2.36,61,Wunderground v.1.15,2013-02-22 22:29:00,
2013-02-23 09:34:00,70.3,68.8,29.80,NNE,23,3.0,-999.0,95,0.09,,,2.36,61,Wunderground v.1.15,2013-02-22 22:34:00,
2013-02-23 09:39:00,70.3,68.8,29.80,NNE,23,3.0,-999.0,95,0.09,,,2.36,61,Wunderground v.1.15,2013-02-22 22:39:00,
2013-02-23 09:44:00,70.3,68.8,29.80,NNE,23,3.0,-999.0,95,0.09,,,2.36,61,Wunderground v.1.15,2013-02-22 22:44:00,
2013-02-23 09:49:00,70.4,68.6,29.80,NE,45,3.0,-999.0,94,0.06,,,2.36,78,Wunderground v.1.15,2013-02-22 22:49:00,
2013-02-23 09:54:00,70.4,68.6,29.80,NE,45,3.0,-999.0,94,0.06,,,2.36,78,Wunderground v.1.15,2013-02-22 22:54:00,
2013-02-23 09:59:00,70.4,68.6,29.80,NE,45,3.0,-999.0,94,0.06,,,2.36,78,Wunderground v.1.15,2013-02-22 22:59:00,
2013-02-23 10:04:00,70.4,68.6,29.80,NE,45,3.0,-999.0,94,0.06,,,2.36,78,Wunderground v.1.15,2013-02-22 23:04:00,
2013-02-23 10:09:00,70.4,68.6,29.80,NE,45,3.0,-999.0,94,0.06,,,2.36,78,Wunderground v.1.15,2013-02-22 23:09:00,
2013-02-23 10:14:00,70.4,68.6,29.80,NE,45,3.0,-999.0,94,0.06,,,2.36,78,Wunderground v.1.15,2013-02-22 23:14:00,
2013-02-23 10:19:00,70.3,68.8,29.80,West,270,3.0,-999.0,95,0.02,,,2.36,133,Wunderground v.1.15,2013-02-22 23:19:00,
2013-02-23 10:24:00,70.3,68.8,29.80,West,270,3.0,-999.0,95,0.02,,,2.36,133,Wunderground v.1.15,2013-02-22 23:24:00,
2013-02-23 10:34:00,70.3,68.8,29.80,West,270,3.0,-999.0,95,0.02,,,2.36,133,Wunderground v.1.15,2013-02-22 23:34:00,
2013-02-23 10:39:00,70.3,68.8,29.80,West,270,3.0,-999.0,95,0.02,,,2.36,133,Wunderground v.1.15,2013-02-22 23:39:00,
2013-02-23 10:44:00,70.3,68.8,29.80,West,270,3.0,-999.0,95,0.02,,,2.36,133,Wunderground v.1.15,2013-02-22 23:44:00,
2013-02-23 10:49:00,70.9,69.4,29.78,NNW,338,3.0,-999.0,95,0.02,,,2.36,128,Wunderground v.1.15,2013-02-22 23:49:00,
2013-02-23 10:54:00,70.9,69.4,29.78,NNW,338,3.0,-999.0,95,0.02,,,2.36,128,Wunderground v.1.15,2013-02-22 23:54:00,
2013-02-23 10:59:00,70.9,69.4,29.78,NNW,338,3.0,-999.0,95,0.02,,,2.36,128,Wunderground v.1.15,2013-02-22 23:59:00,
2013-02-23 11:04:00,70.9,69.4,29.78,NNW,338,3.0,-999.0,95,0.02,,,2.36,128,Wunderground v.1.15,2013-02-23 00:04:00,
2013-02-23 11:09:00,70.9,69.4,29.78,NNW,338,3.0,-999.0,95,0.02,,,2.36,128,Wunderground v.1.15,2013-02-23 00:09:00,
2013-02-23 11:14:00,70.9,69.4,29.78,NNW,338,3.0,-999.0,95,0.02,,,2.36,128,Wunderground v.1.15,2013-02-23 00:14:00,
2013-02-23 11:19:00,71.0,69.5,29.77,NNE,23,3.0,-999.0,95,0.04,,,2.36,77,Wunderground v.1.15,2013-02-23 00:19:00,
2013-02-23 11:24:00,71.0,69.5,29.77,NNE,23,3.0,-999.0,95,0.04,,,2.36,77,Wunderground v.1.15,2013-02-23 00:24:00,
2013-02-23 11:29:00,71.0,69.5,29.77,NNE,23,3.0,-999.0,95,0.04,,,2.36,77,Wunderground v.1.15,2013-02-23 00:29:00,
2013-02-23 11:34:00,71.0,69.5,29.77,NNE,23,3.0,-999.0,95,0.04,,,2.36,77,Wunderground v.1.15,2013-02-23 00:34:00,
2013-02-23 11:39:00,71.0,69.5,29.77,NNE,23,3.0,-999.0,95,0.04,,,2.36,77,Wunderground v.1.15,2013-02-23 00:39:00,
2013-02-23 11:44:00,71.0,69.5,29.77,NNE,23,3.0,-999.0,95,0.04,,,2.36,77,Wunderground v.1.15,2013-02-23 00:44:00,
2013-02-23 11:49:00,71.6,70.1,29.75,NNW,338,3.0,-999.0,95,0.03,,,2.36,195,Wunderground v.1.15,2013-02-23 00:49:00,
2013-02-23 11:54:00,71.6,70.1,29.75,NNW,338,3.0,-999.0,95,0.03,,,2.36,195,Wunderground v.1.15,2013-02-23 00:54:00,
2013-02-23 11:59:00,71.6,70.1,29.75,NNW,338,3.0,-999.0,95,0.03,,,2.36,195,Wunderground v.1.15,2013-02-23 00:59:00,
2013-02-23 12:04:00,71.6,70.1,29.75,NNW,338,3.0,-999.0,95,0.03,,,2.36,195,Wunderground v.1.15,2013-02-23 01:04:00,
2013-02-23 12:09:00,71.6,70.1,29.75,NNW,338,3.0,-999.0,95,0.03,,,2.36,195,Wunderground v.1.15,2013-02-23 01:09:00,
2013-02-23 12:14:00,71.6,70.1,29.75,NNW,338,3.0,-999.0,95,0.03,,,2.36,195,Wunderground v.1.15,2013-02-23 01:14:00,
2013-02-23 12:19:00,71.4,69.9,29.74,NE,45,4.0,-999.0,95,0.16,,,2.36,50,Wunderground v.1.15,2013-02-23 01:19:00,
2013-02-23 12:24:00,71.4,69.9,29.74,NE,45,4.0,-999.0,95,0.16,,,2.36,50,Wunderground v.1.15,2013-02-23 01:24:00,
2013-02-23 12:29:00,71.4,69.9,29.74,NE,45,4.0,-999.0,95,0.16,,,2.36,50,Wunderground v.1.15,2013-02-23 01:29:00,
2013-02-23 12:34:00,71.4,69.9,29.74,NE,45,4.0,-999.0,95,0.16,,,2.36,50,Wunderground v.1.15,2013-02-23 01:34:00,
2013-02-23 12:39:00,71.4,69.9,29.74,NE,45,4.0,-999.0,95,0.16,,,2.36,50,Wunderground v.1.15,2013-02-23 01:39:00,
2013-02-23 12:44:00,71.4,69.9,29.74,NE,45,4.0,-999.0,95,0.16,,,2.36,50,Wunderground v.1.15,2013-02-23 01:44:00,
2013-02-23 12:49:00,70.8,69.6,29.72,NNE,23,3.0,-999.0,96,0.43,,,2.36,47,Wunderground v.1.15,2013-02-23 01:49:00,
2013-02-23 12:54:00,70.8,69.6,29.72,NNE,23,3.0,-999.0,96,0.43,,,2.36,47,Wunderground v.1.15,2013-02-23 01:54:00,
2013-02-23 12:59:00,70.8,69.6,29.72,NNE,23,3.0,-999.0,96,0.43,,,2.36,47,Wunderground v.1.15,2013-02-23 01:59:00,
2013-02-23 13:04:00,70.8,69.6,29.72,NNE,23,3.0,-999.0,96,0.43,,,2.36,47,Wunderground v.1.15,2013-02-23 02:04:00,
2013-02-23 13:09:00,70.8,69.6,29.72,NNE,23,3.0,-999.0,96,0.43,,,2.36,47,Wunderground v.1.15,2013-02-23 02:09:00,
2013-02-23 13:14:00,70.8,69.6,29.72,NNE,23,3.0,-999.0,96,0.43,,,2.36,47,Wunderground v.1.15,2013-02-23 02:14:00,
2013-02-23 13:19:00,71.6,70.7,29.73,NNE,23,3.0,-999.0,97,0.39,,,2.36,188,Wunderground v.1.15,2013-02-23 02:19:00,
2013-02-23 13:24:00,71.6,70.7,29.73,NNE,23,3.0,-999.0,97,0.39,,,2.36,188,Wunderground v.1.15,2013-02-23 02:24:00,
2013-02-23 13:29:00,71.6,70.7,29.73,NNE,23,3.0,-999.0,97,0.39,,,2.36,188,Wunderground v.1.15,2013-02-23 02:29:00,
2013-02-23 13:34:00,71.6,70.7,29.73,NNE,23,3.0,-999.0,97,0.39,,,2.36,188,Wunderground v.1.15,2013-02-23 02:34:00,
2013-02-23 13:39:00,71.6,70.7,29.73,NNE,23,3.0,-999.0,97,0.39,,,2.36,188,Wunderground v.1.15,2013-02-23 02:39:00,
2013-02-23 13:44:00,71.6,70.7,29.73,NNE,23,3.0,-999.0,97,0.39,,,2.36,188,Wunderground v.1.15,2013-02-23 02:44:00,
2013-02-23 13:49:00,72.4,71.2,29.71,NE,45,3.0,-999.0,96,0.11,,,2.36,167,Wunderground v.1.15,2013-02-23 02:49:00,
2013-02-23 13:54:00,72.4,71.2,29.71,NE,45,3.0,-999.0,96,0.11,,,2.36,167,Wunderground v.1.15,2013-02-23 02:54:00,
2013-02-23 13:59:00,72.4,71.2,29.71,NE,45,3.0,-999.0,96,0.11,,,2.36,167,Wunderground v.1.15,2013-02-23 02:59:00,
2013-02-23 14:04:00,72.4,71.2,29.71,NE,45,3.0,-999.0,96,0.11,,,2.36,167,Wunderground v.1.15,2013-02-23 03:04:00,
2013-02-23 14:09:00,72.4,71.2,29.71,NE,45,3.0,-999.0,96,0.11,,,2.36,167,Wunderground v.1.15,2013-02-23 03:09:00,
2013-02-23 14:14:00,72.4,71.2,29.71,NE,45,3.0,-999.0,96,0.11,,,2.36,167,Wunderground v.1.15,2013-02-23 03:14:00,
2013-02-23 14:19:00,73.2,71.1,29.71,NNE,23,3.0,-999.0,93,0.01,,,2.36,325,Wunderground v.1.15,2013-02-23 03:19:00,
2013-02-23 14:24:00,73.2,71.1,29.71,NNE,23,3.0,-999.0,93,0.01,,,2.36,325,Wunderground v.1.15,2013-02-23 03:24:00,
2013-02-23 14:29:00,73.2,71.1,29.71,NNE,23,3.0,-999.0,93,0.01,,,2.36,325,Wunderground v.1.15,2013-02-23 03:29:00,
2013-02-23 14:34:00,73.2,71.1,29.71,NNE,23,3.0,-999.0,93,0.01,,,2.36,325,Wunderground v.1.15,2013-02-23 03:34:00,
2013-02-23 14:39:00,73.2,71.1,29.71,NNE,23,3.0,-999.0,93,0.01,,,2.36,325,Wunderground v.1.15,2013-02-23 03:39:00,
2013-02-23 14:44:00,73.2,71.1,29.71,NNE,23,3.0,-999.0,93,0.01,,,2.36,325,Wunderground v.1.15,2013-02-23 03:44:00,
2013-02-23 14:49:00,74.6,71.5,29.69,North,0,3.0,-999.0,90,0.00,,,2.36,231,Wunderground v.1.15,2013-02-23 03:49:00,
2013-02-23 14:54:00,74.6,71.5,29.69,North,0,3.0,-999.0,90,0.00,,,2.36,231,Wunderground v.1.15,2013-02-23 03:54:00,
2013-02-23 14:59:00,74.6,71.5,29.69,North,0,3.0,-999.0,90,0.00,,,2.36,231,Wunderground v.1.15,2013-02-23 03:59:00,
2013-02-23 15:04:00,74.6,71.5,29.69,North,0,3.0,-999.0,90,0.00,,,2.36,231,Wunderground v.1.15,2013-02-23 04:04:00,
2013-02-23 15:09:00,74.6,71.5,29.69,North,0,3.0,-999.0,90,0.00,,,2.36,231,Wunderground v.1.15,2013-02-23 04:09:00,
2013-02-23 15:14:00,74.6,71.5,29.69,North,0,3.0,-999.0,90,0.00,,,2.36,231,Wunderground v.1.15,2013-02-23 04:14:00,
2013-02-23 15:19:00,72.9,71.1,29.69,NNE,23,3.0,-999.0,94,0.10,,,2.36,86,Wunderground v.1.15,2013-02-23 04:19:00,
2013-02-23 15:24:00,72.9,71.1,29.69,NNE,23,3.0,-999.0,94,0.10,,,2.36,86,Wunderground v.1.15,2013-02-23 04:24:00,
2013-02-23 15:29:00,72.9,71.1,29.69,NNE,23,3.0,-999.0,94,0.10,,,2.36,86,Wunderground v.1.15,2013-02-23 04:29:00,
2013-02-23 15:34:00,72.9,71.1,29.69,NNE,23,3.0,-999.0,94,0.10,,,2.36,86,Wunderground v.1.15,2013-02-23 04:34:00,
2013-02-23 15:39:00,72.9,71.1,29.69,NNE,23,3.0,-999.0,94,0.10,,,2.36,86,Wunderground v.1.15,2013-02-23 04:39:00,
2013-02-23 15:44:00,72.9,71.1,29.69,NNE,23,3.0,-999.0,94,0.10,,,2.36,86,Wunderground v.1.15,2013-02-23 04:44:00,
2013-02-23 15:49:00,72.2,70.7,29.68,NE,45,2.0,-999.0,95,0.20,,,2.36,90,Wunderground v.1.15,2013-02-23 04:49:00,
2013-02-23 15:54:00,72.2,70.7,29.68,NE,45,2.0,-999.0,95,0.20,,,2.36,90,Wunderground v.1.15,2013-02-23 04:54:00,
2013-02-23 15:59:00,72.2,70.7,29.68,NE,45,2.0,-999.0,95,0.20,,,2.36,90,Wunderground v.1.15,2013-02-23 04:59:00,
2013-02-23 16:04:00,72.2,70.7,29.68,NE,45,2.0,-999.0,95,0.20,,,2.36,90,Wunderground v.1.15,2013-02-23 05:04:00,
2013-02-23 16:09:00,72.2,70.7,29.68,NE,45,2.0,-999.0,95,0.20,,,2.36,90,Wunderground v.1.15,2013-02-23 05:09:00,
2013-02-23 16:14:00,72.2,70.7,29.68,NE,45,2.0,-999.0,95,0.20,,,2.36,90,Wunderground v.1.15,2013-02-23 05:14:00,
2013-02-23 16:19:00,72.6,71.4,29.67,NE,45,2.0,-999.0,96,0.18,,,2.36,169,Wunderground v.1.15,2013-02-23 05:19:00,
2013-02-23 16:24:00,72.6,71.4,29.67,NE,45,2.0,-999.0,96,0.18,,,2.36,169,Wunderground v.1.15,2013-02-23 05:24:00,
2013-02-23 16:29:00,72.6,71.4,29.67,NE,45,2.0,-999.0,96,0.18,,,2.36,169,Wunderground v.1.15,2013-02-23 05:29:00,
2013-02-23 16:34:00,72.6,71.4,29.67,NE,45,2.0,-999.0,96,0.18,,,2.36,169,Wunderground v.1.15,2013-02-23 05:34:00,
2013-02-23 16:39:00,72.6,71.4,29.67,NE,45,2.0,-999.0,96,0.18,,,2.36,169,Wunderground v.1.15,2013-02-23 05:39:00,
2013-02-23 16:44:00,72.6,71.4,29.67,NE,45,2.0,-999.0,96,0.18,,,2.36,169,Wunderground v.1.15,2013-02-23 05:44:00,
2013-02-23 16:49:00,73.5,71.7,29.67,NE,45,2.0,-999.0,94,0.09,,,2.36,195,Wunderground v.1.15,2013-02-23 05:49:00,
2013-02-23 16:54:00,73.5,71.7,29.67,NE,45,2.0,-999.0,94,0.09,,,2.36,195,Wunderground v.1.15,2013-02-23 05:54:00,
2013-02-23 16:59:00,73.5,71.7,29.67,NE,45,2.0,-999.0,94,0.09,,,2.36,195,Wunderground v.1.15,2013-02-23 05:59:00,
2013-02-23 17:04:00,73.5,71.7,29.67,NE,45,2.0,-999.0,94,0.09,,,2.36,195,Wunderground v.1.15,2013-02-23 06:04:00,
2013-02-23 17:09:00,73.5,71.7,29.67,NE,45,2.0,-999.0,94,0.09,,,2.36,195,Wunderground v.1.15,2013-02-23 06:09:00,
2013-02-23 17:14:00,73.5,71.7,29.67,NE,45,2.0,-999.0,94,0.09,,,2.36,195,Wunderground v.1.15,2013-02-23 06:14:00,
2013-02-23 17:19:00,73.8,71.6,29.67,NE,45,3.0,-999.0,93,0.01,,,2.36,134,Wunderground v.1.15,2013-02-23 06:19:00,
2013-02-23 17:24:00,73.8,71.6,29.67,NE,45,3.0,-999.0,93,0.01,,,2.36,134,Wunderground v.1.15,2013-02-23 06:24:00,
2013-02-23 17:29:00,73.8,71.6,29.67,NE,45,3.0,-999.0,93,0.01,,,2.36,134,Wunderground v.1.15,2013-02-23 06:29:00,
2013-02-23 17:34:00,73.8,71.6,29.67,NE,45,3.0,-999.0,93,0.01,,,2.36,134,Wunderground v.1.15,2013-02-23 06:34:00,
2013-02-23 17:39:00,73.8,71.6,29.67,NE,45,3.0,-999.0,93,0.01,,,2.36,134,Wunderground v.1.15,2013-02-23 06:39:00,
2013-02-23 17:44:00,73.8,71.6,29.67,NE,45,3.0,-999.0,93,0.01,,,2.36,134,Wunderground v.1.15,2013-02-23 06:44:00,
2013-02-23 17:49:00,73.1,71.6,29.66,NE,45,3.0,-999.0,95,0.06,,,2.36,16,Wunderground v.1.15,2013-02-23 06:49:00,
2013-02-23 17:54:00,73.1,71.6,29.66,NE,45,3.0,-999.0,95,0.06,,,2.36,16,Wunderground v.1.15,2013-02-23 06:54:00,
2013-02-23 17:59:00,72.7,71.2,29.66,NW,325,3.0,3.0,95,0.10,,,1.41,5,Wunderground v.1.15,2013-02-23 06:59:00,
2013-02-23 18:04:00,73.1,71.6,29.66,NE,45,3.0,-999.0,95,0.06,,,2.36,16,Wunderground v.1.15,2013-02-23 07:04:00,
2013-02-23 18:09:00,73.1,71.6,29.66,NE,45,3.0,-999.0,95,0.06,,,2.36,16,Wunderground v.1.15,2013-02-23 07:09:00,
2013-02-23 18:14:00,73.1,71.6,29.66,NE,45,3.0,-999.0,95,0.06,,,2.36,16,Wunderground v.1.15,2013-02-23 07:14:00,
2013-02-23 18:19:00,72.5,71.0,29.66,NNE,23,3.0,-999.0,95,0.09,,,2.36,1,Wunderground v.1.15,2013-02-23 07:19:00,
2013-02-23 18:24:00,72.5,71.0,29.66,NNE,23,3.0,-999.0,95,0.09,,,2.36,1,Wunderground v.1.15,2013-02-23 07:24:00,
2013-02-23 18:29:00,72.5,71.0,29.66,NNE,23,3.0,-999.0,95,0.09,,,2.36,1,Wunderground v.1.15,2013-02-23 07:29:00,
2013-02-23 18:34:00,72.5,71.0,29.66,NNE,23,3.0,-999.0,95,0.09,,,2.36,1,Wunderground v.1.15,2013-02-23 07:34:00,
2013-02-23 18:39:00,72.5,71.0,29.66,NNE,23,3.0,-999.0,95,0.09,,,2.36,1,Wunderground v.1.15,2013-02-23 07:39:00,
2013-02-23 18:44:00,72.5,71.0,29.66,NNE,23,3.0,-999.0,95,0.09,,,2.36,1,Wunderground v.1.15,2013-02-23 07:44:00,
2013-02-23 18:49:00,72.3,71.1,29.65,NE,45,4.0,-999.0,96,0.09,,,2.36,2,Wunderground v.1.15,2013-02-23 07:49:00,
2013-02-23 18:54:00,72.3,71.1,29.65,NE,45,4.0,-999.0,96,0.09,,,2.36,2,Wunderground v.1.15,2013-02-23 07:54:00,
2013-02-23 18:59:00,72.3,71.1,29.65,NE,45,4.0,-999.0,96,0.09,,,2.36,2,Wunderground v.1.15,2013-02-23 07:59:00,
2013-02-23 19:04:00,72.3,71.1,29.65,NE,45,4.0,-999.0,96,0.09,,,2.36,2,Wunderground v.1.15,2013-02-23 08:04:00,
2013-02-23 19:09:00,72.3,71.1,29.65,NE,45,4.0,-999.0,96,0.09,,,2.36,2,Wunderground v.1.15,2013-02-23 08:09:00,
2013-02-23 19:14:00,72.3,71.1,29.65,NE,45,4.0,-999.0,96,0.09,,,2.36,2,Wunderground v.1.15,2013-02-23 08:14:00,
2013-02-23 19:19:00,72.2,71.0,29.66,NE,45,5.0,-999.0,96,0.28,,,2.36,0,Wunderground v.1.15,2013-02-23 08:19:00,
2013-02-23 19:24:00,72.2,71.0,29.66,NE,45,5.0,-999.0,96,0.28,,,2.36,0,Wunderground v.1.15,2013-02-23 08:24:00,
2013-02-23 19:29:00,72.2,71.0,29.66,NE,45,5.0,-999.0,96,0.28,,,2.36,0,Wunderground v.1.15,2013-02-23 08:29:00,
2013-02-23 19:34:00,72.2,71.0,29.66,NE,45,5.0,-999.0,96,0.28,,,2.36,0,Wunderground v.1.15,2013-02-23 08:34:00,
2013-02-23 19:39:00,72.2,71.0,29.66,NE,45,5.0,-999.0,96,0.28,,,2.36,0,Wunderground v.1.15,2013-02-23 08:39:00,
2013-02-23 19:44:00,72.2,71.0,29.66,NE,45,5.0,-999.0,96,0.28,,,2.36,0,Wunderground v.1.15,2013-02-23 08:44:00,
2013-02-23 19:49:00,71.7,70.5,29.67,ENE,68,6.0,-999.0,96,0.61,,,2.36,0,Wunderground v.1.15,2013-02-23 08:49:00,
2013-02-23 19:54:00,71.7,70.5,29.67,ENE,68,6.0,-999.0,96,0.61,,,2.36,0,Wunderground v.1.15,2013-02-23 08:54:00,
2013-02-23 19:59:00,71.7,70.5,29.67,ENE,68,6.0,-999.0,96,0.61,,,2.36,0,Wunderground v.1.15,2013-02-23 08:59:00,
2013-02-23 20:04:00,71.7,70.5,29.67,ENE,68,6.0,-999.0,96,0.61,,,2.36,0,Wunderground v.1.15,2013-02-23 09:04:00,
2013-02-23 20:09:00,71.7,70.5,29.67,ENE,68,6.0,-999.0,96,0.61,,,2.36,0,Wunderground v.1.15,2013-02-23 09:09:00,
2013-02-23 20:14:00,71.7,70.5,29.67,ENE,68,6.0,-999.0,96,0.61,,,2.36,0,Wunderground v.1.15,2013-02-23 09:14:00,
2013-02-23 20:19:00,70.9,69.7,29.69,ENE,68,6.0,-999.0,96,0.39,,,2.36,0,Wunderground v.1.15,2013-02-23 09:19:00,
2013-02-23 20:24:00,70.9,69.7,29.69,ENE,68,6.0,-999.0,96,0.39,,,2.36,0,Wunderground v.1.15,2013-02-23 09:24:00,
2013-02-23 20:29:00,70.9,69.7,29.69,ENE,68,6.0,-999.0,96,0.39,,,2.36,0,Wunderground v.1.15,2013-02-23 09:29:00,
2013-02-23 20:34:00,70.9,69.7,29.69,ENE,68,6.0,-999.0,96,0.39,,,2.36,0,Wunderground v.1.15,2013-02-23 09:34:00,
2013-02-23 20:39:00,70.9,69.7,29.69,ENE,68,6.0,-999.0,96,0.39,,,2.36,0,Wunderground v.1.15,2013-02-23 09:39:00,
2013-02-23 20:44:00,70.9,69.7,29.69,ENE,68,6.0,-999.0,96,0.39,,,2.36,0,Wunderground v.1.15,2013-02-23 09:44:00,
2013-02-23 20:49:00,70.1,68.9,29.70,ENE,68,6.0,-999.0,96,0.02,,,2.36,0,Wunderground v.1.15,2013-02-23 09:49:00,
2013-02-23 20:54:00,70.1,68.9,29.70,ENE,68,6.0,-999.0,96,0.02,,,2.36,0,Wunderground v.1.15,2013-02-23 09:54:00,
2013-02-23 20:59:00,70.1,68.9,29.70,ENE,68,6.0,-999.0,96,0.02,,,2.36,0,Wunderground v.1.15,2013-02-23 09:59:00,
2013-02-23 21:04:00,70.1,68.9,29.70,ENE,68,6.0,-999.0,96,0.02,,,2.36,0,Wunderground v.1.15,2013-02-23 10:04:00,
2013-02-23 21:09:00,70.1,68.9,29.70,ENE,68,6.0,-999.0,96,0.02,,,2.36,0,Wunderground v.1.15,2013-02-23 10:09:00,
2013-02-23 21:14:00,70.1,68.9,29.70,ENE,68,6.0,-999.0,96,0.02,,,2.36,0,Wunderground v.1.15,2013-02-23 10:14:00,
2013-02-23 21:19:00,69.7,68.8,29.70,ENE,68,4.0,-999.0,97,0.20,,,2.36,0,Wunderground v.1.15,2013-02-23 10:19:00,
2013-02-23 21:24:00,69.7,68.8,29.70,ENE,68,4.0,-999.0,97,0.20,,,2.36,0,Wunderground v.1.15,2013-02-23 10:24:00,
2013-02-23 21:29:00,69.7,68.8,29.70,ENE,68,4.0,-999.0,97,0.20,,,2.36,0,Wunderground v.1.15,2013-02-23 10:29:00,
2013-02-23 21:34:00,69.7,68.8,29.70,ENE,68,4.0,-999.0,97,0.20,,,2.36,0,Wunderground v.1.15,2013-02-23 10:34:00,
2013-02-23 21:39:00,69.7,68.8,29.70,ENE,68,4.0,-999.0,97,0.20,,,2.36,0,Wunderground v.1.15,2013-02-23 10:39:00,
2013-02-23 21:44:00,69.7,68.8,29.70,ENE,68,4.0,-999.0,97,0.20,,,2.36,0,Wunderground v.1.15,2013-02-23 10:44:00,
2013-02-23 21:49:00,70.2,69.3,29.70,ENE,68,4.0,-999.0,97,0.21,,,2.36,0,Wunderground v.1.15,2013-02-23 10:49:00,
2013-02-23 21:54:00,70.2,69.3,29.70,ENE,68,4.0,-999.0,97,0.21,,,2.36,0,Wunderground v.1.15,2013-02-23 10:54:00,
2013-02-23 21:59:00,70.2,69.3,29.70,ENE,68,4.0,-999.0,97,0.21,,,2.36,0,Wunderground v.1.15,2013-02-23 10:59:00,
2013-02-23 22:04:00,70.2,69.3,29.70,ENE,68,4.0,-999.0,97,0.21,,,2.36,0,Wunderground v.1.15,2013-02-23 11:04:00,
2013-02-23 22:09:00,70.2,69.3,29.70,ENE,68,4.0,-999.0,97,0.21,,,2.36,0,Wunderground v.1.15,2013-02-23 11:09:00,
2013-02-23 22:14:00,70.2,69.3,29.70,ENE,68,4.0,-999.0,97,0.21,,,2.36,0,Wunderground v.1.15,2013-02-23 11:14:00,
2013-02-23 22:19:00,70.1,69.2,29.69,ENE,68,3.0,-999.0,97,0.03,,,2.36,0,Wunderground v.1.15,2013-02-23 11:19:00,
2013-02-23 22:24:00,70.1,69.2,29.69,ENE,68,3.0,-999.0,97,0.03,,,2.36,0,Wunderground v.1.15,2013-02-23 11:24:00,
2013-02-23 22:29:00,70.1,69.2,29.69,ENE,68,3.0,-999.0,97,0.03,,,2.36,0,Wunderground v.1.15,2013-02-23 11:29:00,
2013-02-23 22:34:00,70.1,69.2,29.69,ENE,68,3.0,-999.0,97,0.03,,,2.36,0,Wunderground v.1.15,2013-02-23 11:34:00,
2013-02-23 22:39:00,70.1,69.2,29.69,ENE,68,3.0,-999.0,97,0.03,,,2.36,0,Wunderground v.1.15,2013-02-23 11:39:00,
2013-02-23 22:44:00,70.1,69.2,29.69,ENE,68,3.0,-999.0,97,0.03,,,2.36,0,Wunderground v.1.15,2013-02-23 11:44:00,
2013-02-23 22:49:00,70.5,69.6,29.70,ENE,68,3.0,-999.0,97,0.01,,,2.36,0,Wunderground v.1.15,2013-02-23 11:49:00,
2013-02-23 22:54:00,70.5,69.6,29.70,ENE,68,3.0,-999.0,97,0.01,,,2.36,0,Wunderground v.1.15,2013-02-23 11:54:00,
2013-02-23 22:59:00,70.5,69.6,29.70,ENE,68,3.0,-999.0,97,0.01,,,2.36,0,Wunderground v.1.15,2013-02-23 11:59:00,
2013-02-23 23:04:00,70.5,69.6,29.70,ENE,68,3.0,-999.0,97,0.01,,,2.36,0,Wunderground v.1.15,2013-02-23 12:04:00,
2013-02-23 23:09:00,70.5,69.6,29.70,ENE,68,3.0,-999.0,97,0.01,,,2.36,0,Wunderground v.1.15,2013-02-23 12:09:00,
2013-02-23 23:14:00,70.5,69.6,29.70,ENE,68,3.0,-999.0,97,0.01,,,2.36,0,Wunderground v.1.15,2013-02-23 12:14:00,
2013-02-23 23:19:00,70.8,69.9,29.70,ENE,68,2.0,-999.0,97,0.01,,,2.36,0,Wunderground v.1.15,2013-02-23 12:19:00,
2013-02-23 23:24:00,70.8,69.9,29.70,ENE,68,2.0,-999.0,97,0.01,,,2.36,0,Wunderground v.1.15,2013-02-23 12:24:00,
2013-02-23 23:29:00,70.8,69.9,29.70,ENE,68,2.0,-999.0,97,0.01,,,2.36,0,Wunderground v.1.15,2013-02-23 12:29:00,
2013-02-23 23:34:00,70.8,69.9,29.70,ENE,68,2.0,-999.0,97,0.01,,,2.36,0,Wunderground v.1.15,2013-02-23 12:34:00,
2013-02-23 23:39:00,70.8,69.9,29.70,ENE,68,2.0,-999.0,97,0.01,,,2.36,0,Wunderground v.1.15,2013-02-23 12:39:00,
2013-02-23 23:44:00,70.8,69.9,29.70,ENE,68,2.0,-999.0,97,0.01,,,2.36,0,Wunderground v.1.15,2013-02-23 12:44:00,
2013-02-23 23:49:00,71.2,70.3,29.72,NE,45,2.0,-999.0,97,0.01,,,2.36,0,Wunderground v.1.15,2013-02-23 12:49:00,
2013-02-23 23:54:00,71.2,70.3,29.72,NE,45,2.0,-999.0,97,0.01,,,2.36,0,Wunderground v.1.15,2013-02-23 12:54:00,
2013-02-23 23:59:00,71.2,70.3,29.72,NE,45,2.0,-999.0,97,0.01,,,2.36,0,Wunderground v.1.15,2013-02-23 12:59:00,